National Weather Service Raw Text Product

Displaying AFOS PIL: RWRIA Received: 2017-08-13 08:00 UTC


678 
ASUS43 KDMX 130806
RWRIA 

WEATHER ROUNDUP FOR IOWA
NATIONAL WEATHER SERVICE DES MOINES IA
300 AM CDT SUN AUG 13 2017

NOTE: "FAIR" INDICATES FEW OR NO CLOUDS BELOW 12,000 FEET WITH NO
SIGNIFICANT WEATHER AND/OR OBSTRUCTIONS TO VISIBILITY.

* - THESE STATIONS ARE NOT NWS STATIONS...THUS NOT UNDER NWS
QUALITY CONTROL.  THEY ALSO DO NOT REPORT WEATHER SUCH 
AS PRECIPITATION OR FOG.  

IAZ001>003-012>014-020>022-031>034-043>046-130900-
   NORTHWEST IOWA
  
CITY           SKY/WX    TMP DP  RH WIND       PRES   REMARKS
CARROLL *      CLOUDY    63  61  94 E3        30.04F                  
CHEROKEE *     CLOUDY    63  56  79 S3        30.00F                  
DENISON *      MOCLDY    63  55  77 CALM      30.04S                  
LE MARS *      CLOUDY    66  57  72 SE3       29.98S                  
ORANGE CITY *  CLOUDY    64  59  82 S7        29.98S                  
SHELDON *      MOCLDY    63  55  77 SE5       29.99R                  
SIOUX CITY     CLOUDY    67  59  75 SE10      29.98F                  
SPENCER        CLOUDY    63  56  78 SE9       30.02F                  
STORM LAKE *   MOCLDY    61  55  82 SE12      30.02F                  
$$
 
IAZ055>058-069>071-079>083-090>094-130900-
   SOUTHWEST IOWA
  
CITY           SKY/WX    TMP DP  RH WIND       PRES   REMARKS
ATLANTIC *     MOCLDY    63  59  88 CALM      30.03F                  
AUDUBON *      CLOUDY    59  55  88 CALM      30.05F                  
CLARINDA *       N/A     59  59 100 CALM      30.05F                  
COUNCIL BLFS * CLOUDY    64  59  82 SE7       30.01F                  
CRESTON *      CLOUDY    61  55  82 CALM      30.07S                  
HARLAN  *      CLOUDY    61  61 100 CALM      30.05F                  
LAMONI         PTCLDY    64  56  75 SE5       30.06F                  
RED OAK *      CLOUDY    61  59  94 CALM      30.03F                  
SHENANDOAH *   CLOUDY    61  59  94 CALM      30.03F                  
$$
 
IAZ047>049-059>061-072>074-084-130900-
   CENTRAL IOWA
  
CITY           SKY/WX    TMP DP  RH WIND       PRES   REMARKS
AMES           CLOUDY    60  56  86 CALM      30.07S                  
ANKENY *       CLOUDY    63  55  77 SE6       30.07F                  
BOONE *        CLOUDY    61  54  77 SE8       30.05F                  
CHARITON *     MOCLDY    61  55  82 SE6       30.06S                  
DES MOINES     CLOUDY    66  54  65 SE7       30.05F                  
GRINNELL*      PTCLDY    57  52  85 SE3       30.10S                  
KNOXVILLE *    MOCLDY    63  54  72 SE6       30.06S                  
MARSHALLTOWN   PTCLDY    57  53  86 SE6       30.07S                  
NEWTON *       CLOUDY    57  54  88 SE6       30.08S                  
PELLA *        MOCLDY    59  53  78 SE3       30.09R                  
PERRY *          N/A     61  58  92 E5        30.05F                  
$$
 
IAZ004>006-015-016-023>025-035-036-130900-
   NORTH CENTRAL IOWA
  
CITY           SKY/WX    TMP DP  RH WIND       PRES   REMARKS
ALGONA *       CLOUDY    63  52  67 SE10      30.05S                  
CLARION *      MOCLDY    59  54  82 SE8       30.06S                  
ESTHERVILLE    CLOUDY    61  55  81 S6        30.04R                  
FORT DODGE *   CLOUDY    64  52  63 SE6       30.06S                  
MASON CITY     PTCLDY    57  51  80 S8        30.07F                  
FOREST CITY *    N/A     59  52  77 SE3       30.06S                  
WEBSTER CITY * MOCLDY    61  52  72 SE7       30.05R                  
IOWA FALLS *     N/A     57  53  85 SE8       30.08S                  
$$

IAZ007>011-017>019-026>030-037>042-050>054-066-130900-
   NORTHEAST IOWA
  
CITY           SKY/WX    TMP DP  RH WIND       PRES   REMARKS
CEDAR RAPIDS   PTCLDY    53  53 100 CALM      30.08R                  
CHARLES CITY * CLOUDY    55  54  94 SE6       30.07F                  
CLINTON *      CLEAR     53  51  93 N5        30.09S                  
DECORAH *      CLOUDY    55  52  88 CALM      30.07F                  
DUBUQUE        CLOUDY    53  50  89 CALM      30.09S                  
MONTICELLO *   CLOUDY    52  52 100 CALM      30.08S                  
OELWEIN *      PTCLDY    54  54 100 SE5       30.09S                  
WATERLOO       PTCLDY    53  49  86 CALM      30.07S                  
$$
 
IAZ064-065-067-068-078-130900-
   EAST CENTRAL IOWA
  
CITY           SKY/WX    TMP DP  RH WIND       PRES   REMARKS
DAVENPORT      CLEAR     51  50  96 CALM      30.10S                  
IOWA CITY      PTCLDY    56  53  90 CALM      30.10R                  
MT. PLEASANT * CLEAR     55  53  96 CALM      30.09R                  
MUSCATINE *    CLOUDY    55  52  88 CALM      30.09R                  
QUAD CITIES    CLEAR     55  51  86 CALM      30.07F                  
$$
 
IAZ062-063-075>077-085>089-095>099-130900-
   SOUTHEAST IOWA
  
CITY           SKY/WX    TMP DP  RH WIND       PRES   REMARKS
BURLINGTON     CLOUDY    56  55  97 CALM      30.07S                  
FAIRFIELD *    CLOUDY    55  50  82 CALM      30.08R                  
FORT MADISON * CLOUDY    55  55 100 CALM      30.08S                  
KEOKUK *       CLEAR     57  55  94 CALM      30.07S                  
OSKALOOSA *      N/A     56  52  88 E5        30.08S                  
OTTUMWA        PTCLDY    58  54  86 CALM      30.07S                  
WASHINGTON *   CLEAR     52  52 100 CALM      30.09S                  
$$

ABBREVIATIONS USED IN REMARKS
   TC - TEMPERATURES IN CELSIUS
  WCI - WIND CHILL INDEX
   HX - HEAT INDEX
  VSB - VISIBILITY  
$$

  

091 
ASUS43 KDMX 130801
RWRIA 

WEATHER ROUNDUP FOR IOWA
NATIONAL WEATHER SERVICE DES MOINES IA
300 AM CDT SUN AUG 13 2017

NOTE: "FAIR" INDICATES FEW OR NO CLOUDS BELOW 12,000 FEET WITH NO
SIGNIFICANT WEATHER AND/OR OBSTRUCTIONS TO VISIBILITY.

* - THESE STATIONS ARE NOT NWS STATIONS...THUS NOT UNDER NWS
QUALITY CONTROL.  THEY ALSO DO NOT REPORT WEATHER SUCH 
AS PRECIPITATION OR FOG.  

IAZ001>003-012>014-020>022-031>034-043>046-130900-
   NORTHWEST IOWA
  
CITY           SKY/WX    TMP DP  RH WIND       PRES   REMARKS
CARROLL *      CLOUDY    63  61  94 E3        30.04F                  
CHEROKEE *     CLOUDY    63  56  79 S3        30.00F                  
DENISON *      MOCLDY    63  55  77 CALM      30.04S                  
LE MARS *      CLOUDY    66  57  72 SE3       29.98S                  
ORANGE CITY *  CLOUDY    64  59  82 S7        29.98S                  
SHELDON *      MOCLDY    63  55  77 SE5       29.99R                  
SIOUX CITY     CLOUDY    67  59  75 SE10      29.98F                  
SPENCER        CLOUDY    63  56  78 SE9       30.02F                  
STORM LAKE *   MOCLDY    61  55  82 SE12      30.02F                  
$$
 
IAZ055>058-069>071-079>083-090>094-130900-
   SOUTHWEST IOWA
  
CITY           SKY/WX    TMP DP  RH WIND       PRES   REMARKS
ATLANTIC *     MOCLDY    63  59  88 CALM      30.03F                  
AUDUBON *      CLOUDY    59  55  88 CALM      30.05F                  
CLARINDA *       N/A     59  59 100 CALM      30.05F                  
COUNCIL BLFS * CLOUDY    64  59  82 SE7       30.01F                  
CRESTON *      CLOUDY    61  55  82 CALM      30.07S                  
HARLAN  *      CLOUDY    61  61 100 CALM      30.05F                  
LAMONI         PTCLDY    64  56  75 SE5       30.06F                  
RED OAK *      CLOUDY    61  59  94 CALM      30.03F                  
SHENANDOAH *   CLOUDY    61  59  94 CALM      30.03F                  
$$
 
IAZ047>049-059>061-072>074-084-130900-
   CENTRAL IOWA
  
CITY           SKY/WX    TMP DP  RH WIND       PRES   REMARKS
AMES           CLOUDY    60  56  86 CALM      30.07S                  
ANKENY *       CLOUDY    63  55  77 SE6       30.07F                  
BOONE *        CLOUDY    61  54  77 SE8       30.05F                  
CHARITON *     MOCLDY    61  55  82 SE6       30.06S                  
DES MOINES     CLOUDY    66  54  65 SE7       30.05F                  
GRINNELL*      PTCLDY    57  52  85 SE3       30.10S                  
KNOXVILLE *    MOCLDY    63  54  72 SE6       30.06S                  
MARSHALLTOWN   PTCLDY    57  53  86 SE6       30.07S                  
NEWTON *       CLOUDY    57  54  88 SE6       30.08S                  
PELLA *        MOCLDY    59  53  78 SE3       30.09R                  
PERRY *          N/A     61  58  92 E5        30.05F                  
$$
 
IAZ004>006-015-016-023>025-035-036-130900-
   NORTH CENTRAL IOWA
  
CITY           SKY/WX    TMP DP  RH WIND       PRES   REMARKS
ALGONA *       CLOUDY    63  52  67 SE10      30.05S                  
CLARION *      MOCLDY    59  54  82 SE8       30.06S                  
ESTHERVILLE    CLOUDY    61  55  81 S6        30.04R                  
FORT DODGE *   CLOUDY    64  52  63 SE6       30.06S                  
MASON CITY     PTCLDY    57  51  80 S8        30.07F                  
FOREST CITY *    N/A     59  52  77 SE3       30.06S                  
WEBSTER CITY * MOCLDY    61  52  72 SE7       30.05R                  
IOWA FALLS *     N/A     57  53  85 SE8       30.08S                  
$$

IAZ007>011-017>019-026>030-037>042-050>054-066-130900-
   NORTHEAST IOWA
  
CITY           SKY/WX    TMP DP  RH WIND       PRES   REMARKS
CEDAR RAPIDS   PTCLDY    53  53 100 CALM      30.08R                  
CHARLES CITY * CLOUDY    55  54  94 SE6       30.07F                  
CLINTON *      CLEAR     53  51  93 N5        30.09S                  
DECORAH *      CLOUDY    55  52  88 CALM      30.07F                  
DUBUQUE        CLOUDY    53  50  89 CALM      30.09S                  
MONTICELLO *   CLOUDY    52  52 100 CALM      30.08S                  
OELWEIN *      PTCLDY    54  54 100 SE5       30.09S                  
WATERLOO       PTCLDY    53  49  86 CALM      30.07S                  
$$
 
IAZ064-065-067-068-078-130900-
   EAST CENTRAL IOWA
  
CITY           SKY/WX    TMP DP  RH WIND       PRES   REMARKS
DAVENPORT      CLEAR     51  50  96 CALM      30.10S                  
IOWA CITY      PTCLDY    56  53  90 CALM      30.10R                  
MUSCATINE *    CLOUDY    55  52  88 CALM      30.09R                  
QUAD CITIES    CLEAR     55  51  86 CALM      30.07F                  
$$
 
IAZ062-063-075>077-085>089-095>099-130900-
   SOUTHEAST IOWA
  
CITY           SKY/WX    TMP DP  RH WIND       PRES   REMARKS
BURLINGTON     CLOUDY    56  55  97 CALM      30.07S                  
FAIRFIELD *    CLOUDY    55  50  82 CALM      30.08R                  
FORT MADISON * CLOUDY    55  55 100 CALM      30.08S                  
KEOKUK *       CLEAR     57  55  94 CALM      30.07S                  
OSKALOOSA *      N/A     56  52  88 E5        30.08S                  
OTTUMWA        PTCLDY    58  54  86 CALM      30.07S                  
WASHINGTON *   CLEAR     52  52 100 CALM      30.09S                  
$$

ABBREVIATIONS USED IN REMARKS
   TC - TEMPERATURES IN CELSIUS
  WCI - WIND CHILL INDEX
   HX - HEAT INDEX
  VSB - VISIBILITY  
$$